Location: Acton
(51.4942°N, 0.2232°W)
Time: 10:42:51
(UTC+00:00)

Okean 1-7 Rocket - Pass Details

Date: 24 January 2021
Orbit: 615 x 650 km, 82.5° (Epoch: 26 February)

Event Time Altitude Azimuth Distance (km) Brightness Sun altitude
Exits shadow 04:54:28 23° 166° (SSE) 1,348 5.3 -27.0°
Drops below altitude 10° 04:56:11 10° 168° (SSE) 2,019 6.3 -26.8°
Sets 04:58:24 0° 169° (S) 2,917 7.1 -26.4°
